SL-16 DEB, 22437

Orbit data source: Space-Track

SL-16 DEB, 22437 is space debris in LEO originally from a launch on Fri, 25 Dec 1992 UTC launched from the Tyuratam Missile And Space Complex (TTMTR). Debris objects in space refer to the collection of defunct objects orbiting the Earth. Examples of debris include non-operational satellites, rocket bodies, and fragments generated from explosions, collisions, or faulty payload assembly.

Loading next visibility...
Identifier
22437, 1992-093EE
Orbit
LEO
Country
Flag of CISCIS
Related business
Manufacturer
Unknown
Mission
Spacecraft
Bus & Motor
Unknown
Mass
Unknown
Launch date (UTC)
1992-12-25 (33 years ago)
Launch vehicle
Unknown
Launch site
Tyuratam Missile And Space Complex (TTMTR)
Object type
Payload
Rocket body
Debris
Shape & HBR
Unknown shape, 0.1 m
Radar Cross Section
Small (<0.1 m²)

Expand to show TLE details & history
Last TLE update: 19 hours ago

TLE from 19 hours ago
0 SL-16 DEB
1 22437U 92093EE  25303.22775163  .00004933  00000-0  11795-2 0  9991
2 22437  71.3305 276.3454 0037153 222.4969 137.3299 14.53642093715478
Epoch: 2025-10-30T05:27Z
TLE epoch observation values (Epoch: 2025-10-30T05:27:57.740Z)
Latitude
-0.00007°
Longitude
155.56524°
Altitude
735.665 km
Speed
7.477 km/s
True Right ascension
18h 25m 22s
True Declination
0° 00' 00"
Sunlit
Object was in daylight at epoch
Visualization orbit readout
Latitude
Unknown
Longitude
Unknown
Altitude
Unknown
Speed
Unknown
Apparent Right ascension
Unknown
Apparent Declination
Unknown
Sunlit
N/A
Visualization observer readout
Local Sidereal Time
19:40:48
Azimuth
Unknown
Elevation
Unknown
Doppler factor
Unknown
Orbital elements
Apogee altitude
737.973 km
Perigee altitude
685.292 km
Semi-major axis
7,089.769 km
Eccentricity
0.00372
Inclination
71.3305°
RAAN
276.3454°
Arg. of periapsis
222.4969°
True anomaly
137.61747°
Mean anomaly
137.3299°
Eccentric anomaly
137.47379°
Mean motion
3.63576 °/min
Orbital period
99.02 mins
BSTAR
0.0011795
Loading maneuver chart data...
Computing Atmospheric mass density...
Loading historical data...
Loading historical data...
Loading historical data...
Loading historical data...
Loading historical data...
Loading historical data...
Loading historical data...

Documentation

Showing up to 5 results
|